Location: Moscow
(55.7500°N, 37.5830°E)
Time: 01:31:00
(UTC+03:00)

Vanguard 3 - Pass Details

Date: 05 December 2021
Orbit: 508 x 3260 km, 33.3° (Epoch: 17 January)

Event Time Altitude Azimuth Distance (km) Brightness Sun altitude
Rises 01:48:29 0° 188° (S) 6,846 - -52.8°
Reaches altitude 10° 01:55:50 10° 170° (S) 6,101 - -52.2°
Exits shadow 02:03:21 16° 148° (SSE) 5,690 11.2 -51.5°
Maximum altitude 02:05:31 16° 140° (SE) 5,654 11.3 -51.3°
Drops below altitude 10° 02:14:57 10° 110° (ESE) 5,969 11.7 -50.4°
Sets 02:21:52 0° 93° (E) 6,640 12.2 -49.8°
